User: anonymous   Login
Location: *
(51.1248°S, 108.4023°W)
Time: 10:33:09
(UTC+00:00)
Language:

Cosmos 2154 Rocket - Orbit

View from above orbital plane
View from above orbital plane
View from above satellite
View from above satellite

Ground track
Ground track

The orbit data is extracted from the following two-line orbital elements,

1 21667U 91059B   21268.07573597  .00000157  00000-0  14874-3 0  9998
2 21667  82.9022 286.7347 0019961 219.7906 193.7900 13.75103014510217
Epoch (UTC): 25 September 2021 01:49:03
Eccentricity: 0.0019961
inclination: 82.9022°
perigee height: 966 km
apogee height: 996 km
right ascension of ascending node: 286.7347°
argument of perigee: 219.7906°
revolutions per day: 13.75103014
mean anomaly at epoch: 193.7900°
orbit number at epoch: 51021

The dashed part of the orbit path shows where the satellite is in the earth's shadow,  

DLR